Lapse_Rate
9.3 9.2 7.7 7.4 7.6 7.7 7.6 7.4 7.4 7.2 7.2 7.1 7.1 7.2 6.4 6.9 6.4 5.9 7.2 6.8 6.7 6.6 6.5 6.6 6.5 5.9 7.5 8.1 8.2 8.5 7.8 8.4 8.9 8.9 8.1 8.2 7.7 7.4 6.5 6.9 7.1 6.5 6.8 7.2 7.5 7.6 7.5
8.7 8.5 8.0 7.9 7.8 7.3 7.2 7.3 7.3 7.0 6.5 6.6 6.5 6.8 6.7 6.2 5.5 6.9 7.4 6.9 6.5 6.4 6.5 6.3 6.1 6.4 7.5 7.0 8.8 8.3 8.6 9.0 8.7 8.8 8.2 8.6 8.0 8.1 7.3 7.0 6.7 7.1 7.0 7.1 7.4 7.4 7.5
8.1 8.0 8.2 8.4 7.7 7.4 7.1 7.8 7.1 6.5 6.1 6.1 7.1 6.8 6.4 5.9 6.6 7.3 7.1 6.9 6.7 6.8 6.7 6.8 7.4 8.1 8.0 8.0 8.5 8.6 8.3 7.9 8.2 8.5 8.3 7.8 8.1 7.9 7.7 6.7 7.7 7.2 6.5 6.5 6.9 7.1 6.8
7.8 7.6 8.0 8.3 7.3 7.1 6.7 6.7 6.4 6.7 6.9 6.9 6.4 6.1 6.8 7.1 7.2 6.9 6.9 6.7 6.6 6.5 6.7 6.5 6.2 7.9 7.8 8.5 8.7 9.1 9.3 9.0 8.9 8.4 8.1 7.9 8.3 8.0 7.6 7.8 7.1 6.5 6.5 6.5 6.5 6.8 7.0
7.8 7.4 7.8 8.0 7.8 7.2 6.8 6.7 6.9 6.7 6.7 6.6 6.4 6.3 5.8 5.6 5.8 5.9 6.5 6.7 6.8 6.7 6.6 6.2 7.6 8.4 7.4 8.7 8.6 8.6 8.8 8.5 8.7 8.5 8.2 8.4 8.1 7.6 7.4 6.5 6.5 6.5 6.5 6.5 6.5 6.8 6.5
8.0 7.5 7.2 7.4 7.2 7.2 7.1 6.6 6.4 6.5 6.2 6.0 5.9 5.9 5.6 5.8 5.9 6.5 6.8 7.3 6.6 7.1 7.0 7.2 7.8 7.7 8.4 7.8 8.1 8.1 8.7 8.4 8.2 8.1 7.9 7.9 7.5 6.5 6.5 6.5 6.5 6.5 6.5 6.5 6.5 6.5 6.5
7.8 7.6 7.6 7.7 6.6 6.7 7.1 6.8 6.8 6.2 6.2 6.3 6.2 5.8 6.0 6.0 6.0 6.2 6.6 7.5 8.2 8.0 8.1 7.7 7.6 7.7 7.9 8.3 8.3 8.3 8.1 8.3 8.4 7.8 6.5 7.2 6.5 6.5 6.5 6.5 6.5 6.5 6.5 6.5 6.5 6.5 6.5
7.5 7.7 7.8 7.9 6.7 6.4 6.1 6.4 6.6 6.8 6.4 6.1 6.1 6.4 6.2 5.5 4.9 4.4 5.8 5.7 4.8 7.1 7.2 7.6 7.5 7.7 7.7 7.4 7.6 8.2 8.4 7.5 7.2 6.5 6.7 6.5 6.5 6.5 6.5 6.5 6.5 6.5 6.5 6.5 6.5 6.5 6.5
7.7 7.3 7.6 6.9 6.7 6.5 6.3 6.1 6.0 6.0 6.0 5.9 5.7 5.8 6.5 6.0 5.5 5.6 5.0 4.1 3.6 4.3 7.1 7.4 7.2 7.9 7.8 8.1 7.4 7.6 8.3 7.7 6.7 6.5 6.5 6.5 6.5 6.7 6.5 6.5 6.5 6.5 6.5 6.5 6.5 6.5 6.5
7.3 7.0 6.3 6.3 6.5 6.2 6.2 6.3 6.2 5.9 5.7 5.7 5.7 5.4 5.1 6.5 7.1 4.8 5.4 4.2 3.5 3.9 6.5 6.5 7.0 7.7 8.0 7.5 7.0 7.8 7.9 7.8 6.8 6.5 6.5 6.5 6.7 6.5 6.5 6.5 6.5 6.5 6.5 6.5 6.5 6.5 6.5
6.5 6.4 6.5 6.2 5.9 5.8 5.7 5.6 5.7 5.6 5.3 5.1 5.0 5.1 4.6 5.7 5.7 5.6 4.5 3.8 3.9 5.6 6.5 6.5 6.9 8.1 7.6 7.2 7.4 7.5 7.4 7.8 6.5 6.5 6.5 6.5 6.5 6.5 6.5 6.5 6.5 6.5 6.5 6.5 6.5 6.5 6.5
6.2 5.9 6.3 6.1 6.0 5.5 5.5 5.6 5.5 5.0 4.9 4.6 4.5 4.6 4.8 5.7 5.8 3.8 3.3 3.8 5.9 6.5 6.5 6.5 7.0 6.7 6.7 7.1 7.1 7.6 7.5 7.8 7.7 6.5 6.5 6.5 7.2 6.6 6.5 6.5 6.5 6.5 6.5 6.5 6.5 6.5 6.5
6.1 6.0 5.7 5.8 5.9 5.9 5.7 5.8 5.7 5.1 4.7 4.6 4.6 4.2 4.7 3.9 5.8 3.5 3.6 6.4 6.5 6.5 6.5 6.5 6.5 6.5 6.5 6.5 6.5 6.7 6.5 6.5 6.5 6.5 6.5 6.5 6.5 6.6 6.9 6.5 6.5 6.5 6.5 6.5 6.5 6.5 6.5
5.6 5.8 5.8 5.8 5.7 5.7 5.8 5.6 5.5 5.1 4.5 4.5 4.2 4.6 3.1 3.4 3.1 3.2 6.2 6.6 6.5 6.5 6.5 6.5 6.5 6.5 6.5 6.5 6.5 6.5 6.5 6.5 6.5 6.5 6.5 6.5 6.5 6.5 6.5 6.5 6.5 6.5 6.5 6.5 6.5 6.5 6.5
5.6 5.3 5.2 5.6 5.5 5.5 5.4 5.3 5.2 4.7 4.3 4.4 4.7 4.8 5.1 4.1 2.9 4.0 7.6 6.5 6.5 6.5 6.5 6.5 6.5 6.5 6.5 6.5 6.5 6.5 6.5 6.5 6.5 6.5 6.5 6.5 6.5 6.5 6.5 6.6 6.5 6.5 6.5 6.5 6.5 6.5 6.5
4.7 5.3 5.2 5.2 5.3 5.1 5.0 5.1 4.9 4.4 3.8 4.1 5.5 5.5 5.5 2.9 2.9 6.1 6.7 6.5 6.5 6.7 6.7 6.6 6.5 6.5 6.5 6.5 6.5 6.5 6.5 6.5 6.5 6.7 6.9 6.5 6.5 6.5 6.5 6.7 6.6 6.5 6.5 6.5 6.5 6.5 6.5
4.5 4.4 5.7 5.5 4.7 4.6 4.7 4.7 4.6 4.4 3.4 3.3 5.5 7.3 5.3 2.6 4.1 7.5 6.5 6.5 6.5 7.2 7.1 6.5 6.5 6.5 6.5 6.5 6.5 6.5 6.5 6.5 6.6 6.5 6.8 6.5 6.5 6.5 6.5 6.5 6.5 6.5 6.5 6.5 6.5 6.5 6.5
4.3 4.5 4.7 4.9 4.2 4.2 4.3 4.3 4.5 4.0 3.1 3.6 4.8 6.6 4.9 3.9 6.9 7.1 6.5 6.5 6.8 6.8 7.3 6.8 6.7 6.5 6.5 6.5 6.5 6.5 6.5 6.5 7.1 6.9 6.5 6.5 6.5 6.5 6.5 6.5 6.5 6.5 6.5 6.5 6.5 6.5 6.5
3.6 4.3 4.4 4.5 4.0 3.8 3.9 3.9 3.9 3.5 2.8 4.3 5.7 5.6 4.9 4.7 6.5 6.5 6.7 6.5 6.9 6.6 6.6 6.5 6.5 6.6 6.6 6.5 6.5 6.5 6.5 7.0 7.2 6.7 6.5 6.5 6.5 6.5 6.5 6.5 6.5 6.5 6.5 6.5 6.5 6.5 6.5
3.6 3.7 4.1 4.2 3.8 3.7 3.6 3.8 3.6 3.1 2.2 4.1 5.8 6.5 6.8 5.9 6.3 6.6 6.5 6.5 6.5 6.9 6.8 7.0 6.6 6.8 6.5 6.5 6.5 6.5 6.5 6.6 7.1 7.0 7.1 6.9 6.5 6.5 6.5 6.5 6.5 6.5 6.5 6.5 6.5 6.5 6.5
3.6 3.6 3.7 3.7 3.6 3.3 3.2 3.4 3.3 3.2 2.2 4.5 4.9 6.7 5.9 6.5 6.7 6.8 6.7 6.5 6.5 6.5 6.9 7.1 6.5 6.5 6.5 6.5 6.5 6.5 6.5 6.5 6.8 7.1 6.9 6.5 6.5 6.5 6.5 6.5 6.5 6.5 6.5 6.5 6.5 6.5 6.5
2.6 3.1 3.5 3.7 3.6 3.2 2.7 2.7 3.1 2.8 2.1 3.7 6.6 6.9 5.5 7.2 7.1 6.7 6.6 6.5 6.5 6.5 6.6 6.5 6.5 6.5 6.5 6.5 6.5 6.5 6.5 6.5 6.5 6.7 6.5 6.6 6.5 6.5 6.5 6.5 6.5 6.5 6.5 6.5 6.5 6.5 6.5
2.0 2.7 2.8 3.4 3.6 3.2 2.9 2.6 2.7 2.8 2.6 4.3 1.7 2.9 6.7 6.8 6.8 6.5 6.5 6.5 6.5 6.8 6.9 7.1 6.8 6.5 6.5 6.6 7.2 7.4 7.4 7.3 6.9 6.5 6.5 6.5 6.5 6.5 6.5 6.5 6.5 6.5 6.5 6.5 6.5 6.5 6.5
2.1 2.1 2.7 3.0 3.3 3.5 3.0 3.0 2.7 2.7 2.8 3.4 2.8 4.6 7.1 6.5 6.7 6.5 6.7 6.8 6.5 6.8 6.5 7.0 7.2 6.6 7.1 6.5 6.9 7.1 7.4 7.2 7.1 6.9 7.0 6.5 6.5 6.5 6.5 6.5 6.5 6.5 6.5 6.5 6.5 6.5 6.5
1.6 2.2 2.4 2.9 3.1 3.2 3.6 3.0 2.9 2.6 2.4 3.2 1.6 4.8 6.5 6.5 6.9 6.8 6.9 6.8 7.0 7.1 6.9 6.9 7.3 7.1 6.1 7.2 6.5 6.5 6.5 6.5 6.5 6.5 6.6 6.8 6.5 6.5 6.5 6.5 6.5 6.5 6.5 6.5 6.5 6.5 6.5
1.5 2.2 2.3 3.0 3.3 3.3 3.7 3.4 3.1 2.9 2.2 2.6 2.3 2.4 5.4 7.1 6.6 6.9 6.9 7.1 6.5 6.5 6.7 7.0 6.3 6.4 6.6 6.8 6.5 6.5 6.5 6.5 6.5 6.5 6.8 6.5 6.5 6.5 6.5 6.5 6.5 6.5 6.5 7.0 6.7 6.5 6.6
2.1 2.3 2.9 2.9 3.9 3.4 3.5 3.9 3.7 3.4 3.3 3.4 3.1 1.8 5.5 7.1 5.8 5.7 7.0 6.7 6.6 6.9 6.5 7.0 7.0 7.2 6.6 6.5 6.5 6.5 6.5 6.5 6.5 6.5 6.5 6.5 6.5 6.5 6.5 6.5 6.5 6.5 6.7 7.1 6.5 6.5 6.9
2.7 2.7 2.8 3.1 3.6 4.4 3.7 4.1 4.2 3.9 3.5 3.5 2.8 1.6 5.1 6.7 5.5 3.9 5.1 5.5 5.5 6.8 6.5 7.0 6.6 6.6 6.7 6.5 6.5 6.5 6.5 6.5 6.5 6.5 6.5 6.5 6.5 6.5 6.5 6.5 6.5 7.0 6.7 6.5 6.7 6.7 6.9
3.2 3.3 3.0 3.9 4.1 4.5 4.7 4.3 4.5 4.6 4.4 3.8 4.6 1.9 3.1 6.3 5.9 2.5 4.0 4.3 5.8 6.4 6.4 4.9 7.0 6.8 7.1 6.5 6.5 6.5 6.5 6.5 6.5 6.5 6.5 6.5 6.5 6.5 6.5 6.5 6.7 7.3 7.0 7.4 6.5 7.3 7.4
Wind_Speed
25 23 20 18 17 16 14 12 12 12 12 11 11 10 15 27 24 20 20 20 18 17 14 12 9 4 1 10 8 10 12 11 11 9 9 7 7 3 5 4 3 3 1 4 7 10 13
24 22 21 19 17 15 13 10 10 9 7 7 8 7 24 20 16 17 20 20 19 17 14 9 6 3 3 12 5 8 9 11 11 9 10 8 5 5 5 2 1 1 4 8 8 11 11
26 24 25 26 25 21 19 19 16 13 12 16 26 25 22 22 19 22 21 19 19 17 15 17 17 16 24 10 4 5 8 6 8 7 10 8 4 2 2 3 1 0 6 7 7 4 5
25 24 26 26 28 28 27 25 25 27 32 29 24 23 23 22 22 21 20 20 17 14 12 9 7 9 8 3 4 10 5 8 9 7 7 5 6 6 2 1 1 3 3 4 4 4 2
23 24 26 25 24 26 26 25 26 27 26 24 23 22 22 21 20 19 19 17 13 13 9 3 5 5 6 3 6 7 8 5 5 6 7 5 3 3 2 2 3 1 4 5 7 4 4
23 23 26 27 27 27 25 25 24 25 24 23 22 22 20 17 14 14 14 14 13 7 6 3 5 6 4 4 3 3 3 4 4 2 1 4 2 1 1 1 2 2 6 4 9 2 10
24 24 25 26 28 27 25 23 22 20 21 20 20 22 18 15 11 6 2 1 3 7 15 10 6 11 3 1 1 5 3 1 2 3 3 4 1 1 1 1 1 2 4 10 14 10 11
23 23 22 25 26 25 25 23 21 18 17 17 18 15 17 16 10 7 5 4 3 3 13 11 8 7 3 2 2 9 3 2 3 4 3 1 3 2 1 2 4 6 8 11 10 2 8
19 22 23 23 24 24 24 23 21 20 17 15 14 13 8 5 4 11 9 5 4 4 5 6 4 4 3 4 5 8 5 2 2 3 3 1 2 2 6 5 5 7 10 7 6 13 13
17 18 19 21 24 24 24 23 20 17 16 15 13 16 13 1 2 2 3 4 3 2 3 7 5 4 2 2 1 3 4 3 1 3 2 1 2 3 4 6 3 4 1 6 10 8 5
14 15 16 17 20 23 24 24 23 18 14 13 11 10 13 11 4 3 4 6 2 1 3 5 3 3 3 2 5 1 2 1 1 1 2 1 2 2 4 1 4 4 4 9 6 8 6
15 13 12 14 17 20 22 23 24 23 16 10 11 9 2 4 3 2 4 1 2 1 4 2 3 5 1 4 3 6 1 3 1 1 2 3 1 3 2 3 5 10 6 2 2 1 2
14 11 9 11 14 17 18 21 22 24 14 8 9 15 7 2 2 5 1 2 2 4 1 2 2 4 2 5 2 6 4 5 4 2 4 3 3 2 3 3 1 7 4 1 2 1 3
14 12 9 9 12 14 18 20 21 22 14 5 6 6 5 5 5 4 2 1 6 1 1 2 3 3 4 7 3 6 1 2 2 1 1 3 3 4 4 2 2 3 3 3 4 4 5
12 12 11 9 10 12 16 19 19 18 12 5 3 2 2 9 7 2 2 5 2 1 2 2 1 3 3 2 3 4 5 2 2 2 3 3 2 1 3 1 1 1 2 2 3 2 3
14 14 12 8 8 11 16 18 19 18 11 5 2 1 2 12 7 2 3 4 1 2 2 1 2 0 1 3 3 3 3 1 1 1 2 1 4 2 2 2 1 1 3 1 1 3 4
14 15 17 10 4 9 14 16 18 18 10 3 2 1 3 7 2 3 3 3 2 3 3 1 1 1 1 2 2 1 1 2 1 1 1 1 1 1 2 5 4 2 2 3 3 3 3
14 15 16 14 10 11 13 15 17 18 7 4 2 1 3 4 2 2 2 3 2 3 2 1 1 1 1 1 2 1 2 4 3 2 2 0 3 5 2 4 2 2 2 2 3 1 4
11 13 14 13 12 12 14 15 16 17 8 1 2 1 1 3 2 2 2 1 1 3 2 2 1 2 1 2 2 2 3 1 4 3 1 2 2 6 4 3 2 4 4 5 5 4 6
8 10 11 12 14 13 13 16 18 16 5 1 1 2 3 3 2 2 2 2 2 1 2 2 1 2 2 3 3 2 3 2 4 3 3 3 3 7 5 8 4 9 8 6 6 4 5
9 8 10 11 12 13 13 15 17 18 6 1 3 2 1 2 3 3 0 0 1 2 1 2 3 4 2 2 3 4 3 2 2 1 2 2 4 6 14 19 17 18 19 13 12 12 6
9 8 7 9 11 12 11 12 16 19 4 3 1 3 2 3 1 1 1 2 2 1 2 2 4 3 5 5 5 5 2 3 3 3 2 1 4 7 10 3 3 12 15 15 16 15 15
9 9 7 7 9 10 12 12 14 18 6 2 1 1 2 2 2 2 2 3 3 1 3 4 3 3 7 10 8 10 8 8 5 4 4 3 3 6 5 7 15 7 9 10 6 8 9
12 10 10 7 6 9 9 11 10 12 9 1 1 1 2 2 3 3 4 4 5 5 3 2 3 3 2 5 7 4 7 8 9 10 7 4 3 3 7 12 3 3 1 1 8 13 12
14 12 12 11 7 6 8 7 8 6 7 2 1 1 1 2 3 4 7 5 4 4 4 4 5 2 4 4 4 4 2 3 3 2 9 10 5 4 4 5 12 3 1 3 4 6 3
16 15 14 14 11 8 7 7 5 3 3 3 2 0 1 3 3 1 3 4 3 3 2 3 1 1 1 2 2 3 2 2 2 4 5 6 8 3 2 4 4 2 2 2 2 4 1
16 16 15 15 16 12 10 8 6 2 1 2 1 0 1 3 1 4 4 2 4 2 2 1 2 2 1 2 1 2 2 1 2 3 4 4 4 9 8 6 10 8 3 3 3 2 2
18 17 18 17 17 17 13 10 8 4 5 2 1 2 1 2 5 6 5 4 3 3 3 4 2 2 3 4 3 2 3 1 3 3 5 8 8 5 6 6 8 8 5 5 2 1 3
19 19 19 20 18 20 17 13 11 8 6 6 1 2 0 3 4 2 5 4 4 4 3 3 2 2 3 2 2 1 4 3 3 3 3 4 7 3 9 6 3 9 10 7 4 8 8
Wind_Direction
41 40 40 33 33 37 37 40 41 37 32 24 28 37 86 110 98 107 117 117 115 114 113 114 100 61 50 76 63 350 353 22 39 58 53 61 65 72 115 108 137 228 238 266 280 285 282
36 34 29 25 25 31 37 34 41 42 28 19 24 56 117 93 105 125 117 114 107 105 105 102 91 74 78 83 338 355 13 44 38 61 61 56 65 68 88 83 312 102 264 277 280 278 279
33 28 36 33 45 48 45 44 56 35 34 92 92 101 105 119 127 115 107 105 106 101 92 97 97 88 67 72 358 34 47 39 37 51 72 49 52 15 107 131 62 232 287 275 255 268 293
34 35 42 44 53 55 60 57 61 61 83 92 98 106 111 116 111 109 113 111 105 95 90 97 87 78 77 7 30 38 49 65 60 53 69 45 61 88 29 108 175 243 248 281 159 271 263
30 42 54 48 50 54 57 58 56 66 71 79 84 89 87 97 102 108 112 106 95 76 65 112 59 89 80 345 38 14 26 46 41 54 45 66 77 70 152 244 228 201 287 285 296 193 295
37 51 58 55 47 49 56 59 61 60 69 75 76 74 73 80 89 101 100 106 87 65 22 88 71 87 49 46 3 356 34 38 42 38 48 34 57 144 114 24 264 306 294 279 275 306 285
49 55 63 56 53 50 52 56 58 61 63 68 64 59 54 62 65 74 337 305 134 59 45 64 71 85 85 18 29 37 13 86 57 63 33 28 184 79 103 52 300 262 265 278 283 294 299
49 50 57 55 53 50 49 49 51 57 53 50 47 45 65 72 56 52 57 63 19 102 72 46 58 73 53 338 83 33 10 62 37 70 343 149 102 98 171 206 252 264 280 287 289 318 288
47 58 57 50 47 47 46 47 44 38 37 38 36 38 41 51 50 54 71 55 341 313 85 40 23 33 2 352 42 13 7 102 69 68 43 83 100 199 262 265 257 263 258 302 292 313 272
54 58 59 47 40 42 42 40 36 34 32 28 32 29 17 309 93 337 56 356 344 277 98 17 13 43 346 351 83 357 13 351 69 20 7 255 145 242 264 278 257 286 149 289 296 312 297
61 59 51 48 40 30 28 28 26 24 20 25 22 16 27 48 111 49 1 340 22 272 82 0 3 349 10 39 328 72 5 266 23 332 242 123 225 248 275 237 203 266 286 302 287 263 306
49 60 55 38 30 30 20 15 13 9 7 15 27 17 40 42 64 21 316 240 219 233 60 50 323 0 16 23 24 317 348 66 29 208 218 267 286 251 288 300 253 299 295 298 175 181 227
37 41 44 32 24 16 16 10 4 4 5 19 30 46 57 36 47 326 276 225 248 59 41 67 29 1 348 358 11 7 15 33 27 329 11 311 207 215 245 288 230 320 280 276 230 289 5
30 26 17 21 20 13 8 5 7 8 16 46 32 27 33 38 329 301 233 280 67 35 4 65 16 357 23 0 42 344 8 39 54 14 77 343 207 172 173 260 325 16 353 22 311 330 322
8 19 29 17 8 8 5 359 2 11 14 48 9 24 27 354 343 300 266 52 47 128 114 124 110 51 11 38 349 349 5 351 318 297 348 344 275 177 218 199 273 68 7 12 277 136 281
3 359 1 357 355 360 359 0 359 3 16 27 70 7 25 334 331 272 68 95 116 195 154 139 70 341 323 324 337 15 21 92 347 242 310 71 295 163 115 164 147 304 120 301 141 290 287
8 357 352 344 15 3 0 1 360 355 6 40 71 108 13 345 288 44 81 96 152 219 197 245 126 173 280 314 297 342 0 196 253 89 341 180 305 131 215 201 185 181 196 215 270 240 294
1 3 11 23 30 12 5 4 1 356 351 54 105 73 14 312 38 26 91 125 191 154 192 252 240 261 282 292 289 290 278 222 168 185 319 192 309 278 243 103 120 213 231 238 277 321 264
351 2 1 1 2 10 7 5 5 3 7 137 70 7 36 299 81 87 108 120 185 167 189 176 259 257 255 271 293 248 239 274 194 204 330 137 210 298 172 148 169 226 199 215 283 258 246
336 347 357 352 352 357 7 3 2 4 1 33 119 91 31 60 40 78 129 156 191 261 217 201 206 201 256 266 240 263 258 246 195 229 213 180 259 252 272 302 315 283 267 229 280 264 302
308 328 342 350 349 351 358 4 1 1 356 255 13 82 69 55 71 77 66 126 230 231 229 229 197 223 214 273 260 235 224 246 217 243 165 251 267 255 271 276 279 273 275 260 220 232 250
299 297 321 336 344 346 350 359 1 1 359 88 121 166 176 123 169 196 149 181 227 269 244 217 240 189 215 231 244 291 216 241 255 162 193 194 279 301 293 272 234 271 260 255 255 254 253
283 284 287 310 327 337 343 352 5 4 14 72 90 40 270 120 149 203 182 180 198 159 195 265 260 267 255 261 261 269 270 261 276 222 209 241 292 324 275 315 305 263 243 202 207 220 228
274 275 268 273 296 319 333 350 6 18 34 78 128 152 238 152 210 209 186 204 220 217 242 215 204 254 348 313 280 240 252 248 239 231 237 244 257 282 292 321 277 45 30 301 268 273 251
261 264 259 256 258 285 312 324 348 19 30 70 108 254 237 264 237 224 215 226 246 236 236 242 233 234 319 296 288 292 197 184 122 136 220 226 241 281 291 296 292 249 164 185 211 297 247
258 253 255 247 246 248 271 288 314 353 40 91 99 336 302 300 225 94 172 183 238 223 201 217 217 182 248 291 301 314 314 6 188 152 47 181 233 253 307 292 271 51 126 160 161 266 214
256 249 251 248 239 232 238 258 265 299 51 55 85 227 301 276 220 169 216 191 152 172 259 171 192 168 239 192 257 269 294 316 263 238 180 153 187 220 237 262 278 260 187 172 251 66 230
262 251 243 243 233 233 225 230 240 223 191 153 82 185 283 262 269 202 196 171 147 212 212 131 177 193 164 197 213 200 238 291 271 233 196 190 177 198 197 223 261 165 137 215 19 244 244
262 257 245 241 236 225 226 221 222 219 210 174 188 149 114 256 287 241 244 244 224 199 176 187 322 159 190 187 211 199 223 216 252 274 195 230 222 216 213 228 259 194 243 221 226 261 256